North Island, CA

10:51 PM PDT on April 23, 2017 (GMT -0700)
North Island Naval Air Station

Weather History for KNZY - February, 2012

Change the Weather History Date:

Wednesday, February 22, 2012

  Actual Average Record
Temperature  
Mean Temperature 64 °F -  
Max Temperature 79 °F 60 °F 88 °F (2002)
Min Temperature 50 °F 48 °F 42 °F (2006)
Growing Degree Days 14 (Base 50)    
Moisture  
Dew Point 40 °F    
Average Humidity 44    
Maximum Humidity 66    
Minimum Humidity 18    
Precipitation  
Precipitation 0.00 in - - ()
Sea Level Pressure  
Sea Level Pressure 30.03 in    
Wind  
Wind Speed 3 mph (NNW)    
Max Wind Speed 15 mph    
Max Gust Speed -    
Visibility 10 miles    
Events      
Averages and records for this station are not official NWS values.
T = Trace of Precipitation, MM = Missing Value Source: NWS Daily Summary

Daily Weather History Graph

Daily Weather History Graph

Search for Another Location

Airport or City:

Trip Planner

Search our weather history database for the weather conditions in past years. The results will help you decide how hot, cold, wet, or windy it might be!

Date:

Astronomy

Feb. 22, 2012 Rise Set
Actual Time 6:25 AM PST 5:40 PM PST
Civil Twilight 6:00 AM PST 6:05 PM PST
Nautical Twilight 5:31 AM PST 6:33 PM PST
Astronomical Twilight 5:02 AM PST 7:02 PM PST
Moon 6:31 AM PST (2/22) 6:44 PM PST (2/22)
Length of Visible Light 12h 04m
Length of Day
11h 15m
New Moon, 1% of the Moon is Illuminated
Feb 22
New Moon
Feb 29
First Quarter
Mar 8
Full
Mar 14
Last Quarter
Mar 22
New

Hourly Weather History & Observations

Time (PST) Temp. Dew Point Humidity Pressure Visibility Wind Dir Wind Speed Gust Speed Precip Events Conditions
12:52 AM 55.9 °F 39.0 °F 53% 30.13 in 9.0 mi Calm Calm - N/A   Partly Cloudy
1:52 AM 53.1 °F 39.0 °F 59% 30.12 in 9.0 mi Calm Calm - N/A   Partly Cloudy
2:52 AM - - N/A% - 10.0 mi Calm Calm - N/A   Unknown
3:00 AM - - N/A% - - North - - N/A   Unknown
3:52 AM 55.0 °F 42.1 °F 62% 30.11 in 10.0 mi NE 4.6 mph - N/A   Partly Cloudy
4:52 AM 50.0 °F 39.0 °F 66% 30.09 in 10.0 mi Calm Calm - N/A   Partly Cloudy
5:52 AM 53.1 °F 37.9 °F 57% 30.10 in 10.0 mi Calm Calm - N/A   Scattered Clouds
6:52 AM 52.0 °F 37.9 °F 59% 30.10 in 10.0 mi Calm Calm - N/A   Mostly Cloudy
7:52 AM 60.1 °F 43.0 °F 53% 30.11 in 10.0 mi Calm Calm - N/A   Mostly Cloudy
8:52 AM 64.0 °F 37.0 °F 37% 30.10 in 10.0 mi WNW 4.6 mph - N/A   Mostly Cloudy
9:52 AM 70.0 °F 37.0 °F 30% 30.10 in 10.0 mi NNW 4.6 mph - N/A   Scattered Clouds
10:52 AM 77.0 °F 35.6 °F 22% 30.08 in 10.0 mi North 5.8 mph - N/A   Scattered Clouds
11:52 AM 79.0 °F 32.0 °F 18% 30.05 in 10.0 mi NW 9.2 mph - N/A   Scattered Clouds
12:52 PM 78.1 °F 35.1 °F 21% 30.01 in 10.0 mi NW 10.4 mph - N/A   Scattered Clouds
1:52 PM 73.9 °F 39.9 °F 29% 30.00 in 10.0 mi NW 15.0 mph - N/A   Scattered Clouds
2:52 PM 73.9 °F 37.0 °F 26% 29.99 in 10.0 mi NW 11.5 mph - N/A   Scattered Clouds
3:52 PM 73.0 °F 36.0 °F 26% 29.96 in 10.0 mi NW 11.5 mph - N/A   Scattered Clouds
4:52 PM 72.0 °F 37.9 °F 29% 29.96 in 10.0 mi NW 8.1 mph - N/A   Partly Cloudy
5:52 PM 66.9 °F 39.9 °F 37% 29.96 in 10.0 mi WNW 8.1 mph - N/A   Partly Cloudy
6:52 PM 64.9 °F 50.0 °F 58% 29.96 in 10.0 mi North 4.6 mph - N/A   Partly Cloudy
7:52 PM 63.0 °F 48.0 °F 58% 29.95 in 10.0 mi Calm Calm - N/A   Partly Cloudy
8:52 PM 64.0 °F 45.0 °F 50% 29.95 in 10.0 mi Calm Calm - N/A   Partly Cloudy
9:52 PM 62.1 °F 43.0 °F 50% 29.95 in 10.0 mi North 3.5 mph - N/A   Partly Cloudy
10:52 PM - - N/A% - - North - - N/A   Unknown
11:52 PM 57.9 °F 45.0 °F 62% 29.92 in 8.0 mi Calm Calm - N/A   Partly Cloudy